2023/01/14 00:00:00,21.7, 5.5
2023/01/14 00:10:00,21.5, 5.7
2023/01/14 00:20:00,21.5, 5.0
2023/01/14 00:30:00,21.5, 5.0
2023/01/14 00:40:00,21.4, 5.4
2023/01/14 00:50:00,21.4, 4.9
2023/01/14 01:00:00,21.3, 4.2
2023/01/14 01:10:00,21.2, 5.0
2023/01/14 01:20:00,21.1, 5.0
2023/01/14 01:30:00,21.0, 4.7
2023/01/14 01:40:00,20.8, 5.0
2023/01/14 01:50:00,20.8, 5.1
2023/01/14 02:00:00,20.8, 5.0
2023/01/14 02:10:00,20.5, 4.4
2023/01/14 02:20:00,20.4, 5.0
2023/01/14 02:30:00,20.4, 4.6
2023/01/14 02:40:00,20.5, 4.7
2023/01/14 02:50:00,20.5, 4.6
2023/01/14 03:00:00,20.4, 4.5
2023/01/14 03:10:00,20.4, 4.3
2023/01/14 03:20:00,20.3, 4.4
2023/01/14 03:30:00,20.3, 4.3
2023/01/14 03:40:00,20.3, 4.5
2023/01/14 03:50:00,20.2, 4.0
2023/01/14 04:00:00,20.2, 4.2
2023/01/14 04:10:00,20.0, 4.5
2023/01/14 04:20:00,19.9, 3.7
2023/01/14 04:30:00,19.8, 3.5
2023/01/14 04:40:00,19.6, 3.5
2023/01/14 04:50:00,19.4, 3.7
2023/01/14 05:00:00,19.3, 3.7
2023/01/14 05:10:00,19.3, 3.8
2023/01/14 05:20:00,19.2, 3.6
2023/01/14 05:30:00,19.2, 3.8
2023/01/14 05:40:00,19.2, 3.9
2023/01/14 05:50:00,19.3, 4.1
2023/01/14 06:00:00,19.3, 3.9
2023/01/14 06:10:00,19.3, 3.7
2023/01/14 06:20:00,19.4, 3.9
2023/01/14 06:30:00,19.3, 4.2
2023/01/14 06:40:00,19.2, 3.8
2023/01/14 06:50:00,19.1, 4.2
2023/01/14 07:00:00,19.0, 4.2
2023/01/14 07:10:00,19.0, 4.4
2023/01/14 07:20:00,19.1, 4.0
2023/01/14 07:30:00,19.2, 3.8
2023/01/14 07:40:00,19.2, 4.6
2023/01/14 07:50:00,19.1, 5.8
2023/01/14 08:00:00,19.1, 6.0
2023/01/14 08:10:00,18.9, 4.4
2023/01/14 08:20:00,18.9, 4.3
2023/01/14 08:30:00,18.7, 4.2
2023/01/14 08:40:00,18.6, 4.3
2023/01/14 08:50:00,18.5, 4.2
2023/01/14 09:00:00,18.4, 4.2
2023/01/14 09:10:00,18.2, 4.3
2023/01/14 09:20:00,18.2, 4.3
2023/01/14 09:30:00,18.1, 3.9
2023/01/14 09:40:00,18.0, 3.9
2023/01/14 09:50:00,18.0, 4.0
2023/01/14 10:00:00,18.1, 4.2
2023/01/14 10:10:00,18.1, 4.5
2023/01/14 10:20:00,17.9, 4.7
2023/01/14 10:30:00,17.9, 3.6
2023/01/14 10:40:00,17.9, 5.0
2023/01/14 10:50:00,17.9, 5.4
2023/01/14 11:00:00,17.9, 5.0
2023/01/14 11:10:00,17.8, 5.1
2023/01/14 11:20:00,17.7, 5.2
2023/01/14 11:30:00,17.9, 5.0
2023/01/14 11:40:00,17.7, 5.0
2023/01/14 11:50:00,17.7, 5.0
2023/01/14 12:00:00,17.6, 5.4
2023/01/14 12:10:00,17.5, 5.8
2023/01/14 12:20:00,17.2, 5.6
2023/01/14 12:30:00,17.0, 5.6
2023/01/14 12:40:00,16.9, 5.4
2023/01/14 12:50:00,17.0, 5.2
2023/01/14 13:00:00,16.9, 5.1
2023/01/14 13:10:00,16.7, 4.6
2023/01/14 13:20:00,16.6, 4.6
2023/01/14 13:30:00,16.6, 4.6
2023/01/14 13:40:00,16.4, 4.6
2023/01/14 13:50:00,16.4, 4.5
2023/01/14 14:00:00,16.4, 4.3
2023/01/14 14:10:00,16.4, 4.4
2023/01/14 14:20:00,16.4, 5.9
2023/01/14 14:30:00,16.3, 6.3
2023/01/14 14:40:00,16.2, 6.5
2023/01/14 14:50:00,16.0, 6.2
2023/01/14 15:00:00,15.9, 6.1
2023/01/14 15:10:00,15.8, 5.3
2023/01/14 15:20:00,15.8, 4.7
2023/01/14 15:30:00,15.7, 4.4
2023/01/14 15:40:00,15.7, 6.0
2023/01/14 15:50:00,15.7, 6.0
2023/01/14 16:00:00,15.8, 6.4
2023/01/14 16:10:00,15.7, 6.3
2023/01/14 16:20:00,15.6, 6.0
2023/01/14 16:30:00,15.5, 6.4
2023/01/14 16:40:00,15.3, 6.4
2023/01/14 16:50:00,15.3, 6.6
2023/01/14 17:00:00,15.1, 6.2
2023/01/14 17:10:00,15.0, 6.0
2023/01/14 17:20:00,14.9, 6.3
2023/01/14 17:30:00,14.8, 6.0
2023/01/14 17:40:00,14.8, 6.0
2023/01/14 17:50:00,14.5, 6.0
2023/01/14 18:00:00,14.3, 6.2
2023/01/14 18:10:00,14.1, 6.0
2023/01/14 18:20:00,13.8, 6.0
2023/01/14 18:30:00,13.7, 5.7
2023/01/14 18:40:00,13.7, 5.4
2023/01/14 18:50:00,13.7, 5.7
2023/01/14 19:00:00,13.6, 5.5
2023/01/14 19:10:00,13.6, 5.5
2023/01/14 19:20:00,13.2, 5.5
2023/01/14 19:30:00,13.0, 5.8
2023/01/14 19:40:00,13.0, 5.9
2023/01/14 19:50:00,12.8, 5.5
2023/01/14 20:00:00,12.5, 5.3
2023/01/14 20:10:00,12.4, 5.6
2023/01/14 20:20:00,12.3, 5.4
2023/01/14 20:30:00,12.2, 5.3
2023/01/14 20:40:00,12.3, 5.1
2023/01/14 20:50:00,12.3, 5.3
2023/01/14 21:00:00,12.2, 5.4
2023/01/14 21:10:00,12.2, 5.4
2023/01/14 21:20:00,12.1, 5.3
2023/01/14 21:30:00,12.1, 5.2
2023/01/14 21:40:00,12.0, 5.4
2023/01/14 21:50:00,11.7, 5.3
2023/01/14 22:00:00,11.5, 5.3
2023/01/14 22:10:00,11.5, 5.3
2023/01/14 22:20:00,11.5, 5.3
2023/01/14 22:30:00,11.4, 5.2
2023/01/14 22:40:00,11.1, 5.0
2023/01/14 22:50:00,11.1, 5.0
2023/01/14 23:00:00,11.1, 5.0
2023/01/14 23:10:00,11.1, 4.9
2023/01/14 23:20:00,11.1, 5.0
2023/01/14 23:30:00,11.1, 4.9
2023/01/14 23:40:00,11.1, 4.8
2023/01/14 23:50:00,11.1, 4.8
